[[{"header":{"parameterUnit":"m.s-1","parameterCategory":1,"la1":30.2991,"la2":30.254,"lo1":-89.0895,"lo2":-89.0444,"dy":0.0017,"dx":0.0017,"nx":28,"ny":28,"refTime":"2025-04-30T03:00:00:Z","depth":0,"parameterNumber":2,"parameterNumberName":"U-component_of_WINDS"},"data":[0,0,0,0,0,0,0,0,0,0,0,0,0,0,0,0,0,0,0,0,0,0,0,0,0,0,0,0,0,0,0,0,0,0,0,0,0,0,0,0,0,0,0,0,0,0,0,0,0,0,0,0,0,0,0,0,0,0,-1.2497,-1.2496,0,-1.2458,-1.2457,-1.2457,-1.2438,-1.2438,-1.2439,-1.2439,-1.2396,-1.2395,-1.2394,0,0,0,0,0,0,0,0,0,0,0,0,0,-1.2555,-1.2554,-1.2497,-1.2496,-1.2496,-1.2458,-1.2457,-1.2457,-1.2438,-1.2438,-1.2439,-1.2439,-1.2397,-1.2395,-1.2394,0,0,0,0,0,0,0,0,0,0,0,0,0,-1.2524,-1.2554,-1.2497,-1.2482,-1.2481,-1.2458,-1.2457,-1.2456,-1.2438,-1.2438,-1.2439,-1.2439,-1.2397,-1.2395,-1.2394,-1.2382,0,0,-1.2388,-1.2387,0,0,0,0,0,0,0,0,-1.2526,-1.2522,-1.2485,-1.2483,-1.2481,-1.2453,-1.2462,-1.2431,-1.2438,-1.2454,-1.2439,-1.2439,-1.2415,-1.2412,-1.2404,-1.238,-1.2378,-1.2388,-1.2387,-1.2386,-1.2386,0,0,0,0,0,0,0,-1.2528,-1.2524,-1.2481,-1.2484,-1.2482,-1.2477,-1.2473,-1.2456,-1.2435,-1.2453,-1.2452,-1.2447,-1.2414,-1.2406,-1.2403,-1.2377,-1.2388,-1.2387,-1.2385,-1.2385,-1.2342,-1.2342,0,0,0,0,0,0,-1.2533,-1.2526,-1.2483,-1.248,-1.2504,-1.2476,-1.2471,-1.2462,-1.2435,-1.2431,-1.2447,-1.2447,-1.2409,-1.2405,-1.2401,-1.2386,-1.2386,-1.2385,-1.2384,-1.2342,-1.2342,-1.2342,0,0,0,0,0,0,-1.2534,-1.2529,-1.2484,-1.2503,-1.2496,-1.2475,-1.2465,-1.2461,-1.2453,-1.2431,-1.2427,-1.2443,-1.2409,-1.2404,-1.2387,-1.2384,-1.2384,-1.2382,-1.2342,-1.2342,-1.2342,-1.2355,0,0,0,0,0,0,-1.2536,-1.253,-1.2525,-1.2503,-1.2496,-1.2471,-1.2465,-1.246,-1.245,-1.2449,-1.2426,-1.2422,-1.2408,-1.239,-1.2385,-1.2382,-1.2381,-1.2342,-1.2342,-1.2342,-1.2355,-1.2355,-1.2356,0,0,0,0,0,-1.2538,-1.253,-1.2525,-1.252,-1.2489,-1.2471,-1.2467,-1.2452,-1.245,-1.2445,-1.2431,-1.2422,-1.2386,-1.2388,-1.2383,-1.2379,-1.2342,-1.2342,-1.2342,-1.2355,-1.2355,-1.2356,0,0,0,0,0,0,-1.2552,-1.2527,-1.2521,-1.2505,-1.2491,-1.2468,-1.2461,-1.2453,-1.2438,-1.2437,-1.2419,-1.2414,-1.2399,-1.2387,-1.2391,-1.2366,-1.2363,-1.2362,-1.2375,-1.2375,-1.2376,-1.2378,-1.2379,0,0,0,0,0,-1.2554,-1.2541,-1.2519,-1.2508,-1.25,-1.2482,-1.2473,-1.2464,-1.2447,-1.2441,-1.2425,-1.2409,-1.2393,-1.2384,-1.2368,-1.2353,-1.2348,-1.2348,-1.2349,-1.2349,-1.2348,-1.234,-1.234,-1.2341,-1.2341,-1.2341,0,0,-1.2556,-1.2541,-1.2534,-1.251,-1.2497,-1.2484,-1.2477,-1.2463,-1.2453,-1.2438,-1.2422,-1.241,-1.239,-1.2375,-1.2367,-1.2364,-1.2347,-1.2349,-1.235,-1.2348,-1.2339,-1.2339,-1.2339,-1.2341,-1.2341,-1.2341,0,0,-1.2554,-1.2541,-1.253,-1.2518,-1.2499,-1.2487,-1.2485,-1.2463,-1.2455,-1.2438,-1.2427,-1.2415,-1.2389,-1.2376,-1.2366,-1.236,-1.2351,-1.2356,-1.2358,-1.235,-1.235,-1.235,-1.2348,-1.2347,-1.2355,-1.2355,-1.2355,0,-1.2559,-1.254,-1.2525,-1.2513,-1.2503,-1.249,-1.2478,-1.2467,-1.2444,-1.2437,-1.2435,-1.2403,-1.2389,-1.237,-1.2369,-1.2361,-1.2358,-1.2358,-1.2352,-1.2351,-1.2351,-1.2349,-1.2348,-1.2355,-1.2355,-1.2355,-1.2355,0,-1.2547,-1.2534,-1.2527,-1.2506,-1.2496,-1.2484,-1.2467,-1.2458,-1.245,-1.2438,-1.2422,-1.2405,-1.2386,-1.2381,-1.2372,-1.2361,-1.236,-1.2355,-1.2351,-1.2351,-1.2349,-1.2348,-1.2356,-1.2356,-1.2356,-1.2356,0,0,-1.2552,-1.2524,-1.2522,-1.2512,-1.2491,-1.248,-1.2468,-1.2451,-1.2443,-1.2428,-1.2417,-1.2396,-1.2392,-1.238,-1.237,-1.2363,-1.236,-1.2359,-1.2358,-1.2359,-1.2347,-1.235,-1.235,-1.2354,-1.2354,-1.2354,-1.2348,0,-1.2547,-1.2524,-1.2512,-1.2494,-1.2482,-1.247,-1.2459,-1.2445,-1.2434,-1.2422,-1.2409,-1.2395,-1.239,-1.2383,-1.2376,-1.2362,-1.2357,-1.2362,-1.2344,-1.2343,-1.2348,-1.2348,-1.2352,-1.2347,-1.2347,-1.2347,-1.2347,0,-1.2537,-1.2523,-1.2505,-1.2486,-1.248,-1.2471,-1.2454,-1.2443,-1.2427,-1.2419,-1.2407,-1.2397,-1.2384,-1.2382,-1.2362,-1.2366,-1.2358,-1.235,-1.235,-1.2347,-1.2345,-1.2345,-1.2345,-1.2345,-1.2345,-1.2346,-1.2346,0,-1.2543,-1.2519,-1.2505,-1.2498,-1.2475,-1.2469,-1.2459,-1.2443,-1.2433,-1.2419,-1.2413,-1.2396,-1.2387,-1.2375,-1.2361,-1.2361,-1.2343,-1.234,-1.2336,-1.2336,-1.2332,-1.2333,-1.2331,-1.2328,-1.2328,-1.2328,-1.2328,0,-1.2538,-1.2527,-1.2507,-1.2499,-1.2487,-1.2472,-1.2461,-1.245,-1.2436,-1.2425,-1.2413,-1.2403,-1.2385,-1.2373,-1.2362,-1.2348,-1.2344,-1.2337,-1.2334,-1.2338,-1.2338,-1.2331,-1.2331,-1.2328,-1.2328,-1.2328,-1.2328,0,-1.2541,-1.2528,-1.2512,-1.2492,-1.2487,-1.2479,-1.2462,-1.2453,-1.2442,-1.2428,-1.2424,-1.2407,-1.2391,-1.2376,-1.2356,-1.2348,-1.2334,-1.2331,-1.234,-1.2338,-1.2336,-1.2336,-1.2329,-1.2327,-1.2326,-1.2326,-1.2326,0,-1.2539,-1.2531,-1.251,-1.2502,-1.2493,-1.2481,-1.2471,-1.2457,-1.2448,-1.2429,-1.2423,-1.2407,-1.2394,-1.237,-1.2355,-1.2339,-1.2335,-1.2334,-1.2332,-1.2337,-1.2335,-1.2335,-1.2334,-1.2334,-1.2334,-1.2334,-1.2334,0,-1.2536,-1.253,-1.2517,-1.2503,-1.2492,-1.2479,-1.2466,-1.2461,-1.2444,-1.2434,-1.2419,-1.2409,-1.2388,-1.2373,-1.2356,-1.2345,-1.2337,-1.2335,-1.2333,-1.2336,-1.2342,-1.2339,-1.2341,-1.2335,-1.2335,-1.2335,-1.2335,-1.2335,-1.2537,-1.2529,-1.2513,-1.25,-1.2489,-1.2477,-1.2468,-1.2456,-1.2444,-1.2427,-1.2419,-1.2404,-1.2388,-1.2364,-1.2354,-1.2342,-1.234,-1.2337,-1.2336,-1.2336,-1.2337,-1.2345,-1.2339,-1.2339,-1.2339,-1.2339,-1.2339,0,-1.2533,-1.2523,-1.2511,-1.2493,-1.2483,-1.2477,-1.2462,-1.2454,-1.2441,-1.2427,-1.2415,-1.2398,-1.2383,-1.2367,-1.2351,-1.2345,-1.234,-1.2341,-1.2341,-1.2339,-1.234,-1.2343,-1.2345,-1.2345,-1.2345,-1.2345,-1.2345,-1.2345,-1.253,-1.2517,-1.2509,-1.249,-1.248,-1.2466,-1.2458,-1.2447,-1.2436,-1.2418,-1.2406,-1.2396,-1.2382,-1.2365,-1.2351,-1.2347,-1.2342,-1.2343,-1.2338,-1.2339,-1.2339,-1.2338,-1.2341,-1.2342,-1.2342,-1.2338,-1.2338,-1.2338]},{"header":{"parameterUnit":"m.s-1","parameterCategory":1,"la1":30.2991,"la2":30.254,"lo1":-89.0895,"lo2":-89.0444,"dy":0.0017,"dx":0.0017,"nx":28,"ny":28,"refTime":"2025-04-30T03:00:00:Z","depth":0,"parameterNumber":3,"parameterNumberName":"V-component_of_WINDS"},"data":[0,0,0,0,0,0,0,0,0,0,0,0,0,0,0,0,0,0,0,0,0,0,0,0,0,0,0,0,0,0,0,0,0,0,0,0,0,0,0,0,0,0,0,0,0,0,0,0,0,0,0,0,0,0,0,0,0,0,4.2835,4.2835,0,4.2813,4.2813,4.2812,4.2753,4.2752,4.275,4.2749,4.2728,4.2729,4.273,0,0,0,0,0,0,0,0,0,0,0,0,0,4.2828,4.2828,4.2835,4.2835,4.2834,4.2813,4.2813,4.2812,4.2753,4.2752,4.275,4.2749,4.2728,4.2729,4.273,0,0,0,0,0,0,0,0,0,0,0,0,0,4.2821,4.2828,4.2835,4.2802,4.2799,4.2813,4.2813,4.2812,4.2754,4.2752,4.275,4.2748,4.2728,4.2729,4.273,4.2774,0,0,4.2733,4.2733,0,0,0,0,0,0,0,0,4.2821,4.2821,4.2807,4.2805,4.2801,4.2784,4.2802,4.2799,4.2754,4.2771,4.2749,4.2747,4.2749,4.2748,4.2748,4.2773,4.2772,4.2733,4.2733,4.2734,4.2734,0,0,0,0,0,0,0,4.2822,4.2822,4.2826,4.2807,4.2803,4.2789,4.2786,4.2802,4.2771,4.2769,4.2765,4.2763,4.2746,4.2747,4.2747,4.2772,4.2733,4.2734,4.2734,4.2735,4.2833,4.2835,0,0,0,0,0,0,4.2827,4.2823,4.2827,4.2825,4.2807,4.2791,4.2787,4.2791,4.277,4.2765,4.2765,4.276,4.2746,4.2746,4.2746,4.2796,4.2734,4.2735,4.2735,4.2831,4.2834,4.2836,0,0,0,0,0,0,4.2827,4.2828,4.2828,4.2823,4.2822,4.2793,4.2798,4.2792,4.2792,4.2767,4.2761,4.2771,4.2745,4.2745,4.2768,4.2795,4.2735,4.2736,4.2829,4.2832,4.2835,4.2898,0,0,0,0,0,0,4.2827,4.2828,4.2844,4.2824,4.2822,4.2849,4.2799,4.2793,4.2794,4.2788,4.2771,4.2767,4.2743,4.2766,4.2769,4.2795,4.2737,4.2826,4.283,4.2834,4.2894,4.2903,4.2911,0,0,0,0,0,4.2827,4.2863,4.2845,4.2846,4.2842,4.2851,4.285,4.2822,4.2796,4.2812,4.2796,4.2767,4.2792,4.2769,4.2771,4.2799,4.2824,4.2829,4.2833,4.289,4.2901,4.2911,0,0,0,0,0,0,4.2889,4.286,4.284,4.287,4.2864,4.2841,4.2861,4.2835,4.2836,4.2831,4.2796,4.2793,4.2821,4.2812,4.2788,4.2841,4.2803,4.2808,4.2845,4.2856,4.2865,4.2867,4.2738,0,0,0,0,0,4.2906,4.2915,4.289,4.2919,4.2917,4.289,4.2893,4.2871,4.2863,4.286,4.2846,4.2839,4.2845,4.285,4.2855,4.2892,4.2888,4.2912,4.2921,4.2928,4.2933,4.2953,4.2963,4.2851,4.2851,4.2851,0,0,4.2941,4.2927,4.2935,4.2931,4.2924,4.2935,4.2887,4.2901,4.2909,4.2862,4.2883,4.2872,4.2863,4.2894,4.2906,4.2887,4.2963,4.2934,4.294,4.2941,4.2958,4.2969,4.2979,4.2854,4.2853,4.2853,0,0,4.3011,4.3001,4.3025,4.3018,4.3006,4.2988,4.2994,4.2975,4.2966,4.2986,4.2951,4.2961,4.2972,4.2967,4.2966,4.3035,4.3008,4.3037,4.3084,4.3103,4.3112,4.312,4.3145,4.3154,4.3042,4.3043,4.3043,0,4.3057,4.3072,4.304,4.3056,4.3056,4.3014,4.3038,4.3033,4.3024,4.3025,4.3003,4.3017,4.3007,4.3036,4.3053,4.3054,4.306,4.3039,4.3113,4.312,4.3127,4.3151,4.316,4.3046,4.3046,4.3045,4.3045,0,4.3129,4.314,4.316,4.3152,4.3154,4.3174,4.3146,4.3152,4.3131,4.3116,4.3137,4.3124,4.3125,4.3131,4.311,4.3157,4.3145,4.3119,4.3081,4.3142,4.3163,4.3172,4.3051,4.305,4.3049,4.3048,0,0,4.3237,4.3211,4.3219,4.3215,4.32,4.3208,4.3226,4.3227,4.3233,4.3228,4.3243,4.3254,4.3229,4.3228,4.3207,4.3224,4.328,4.3196,4.3195,4.3212,4.3331,4.3351,4.3362,4.3262,4.3264,4.3265,4.3332,0,4.3304,4.3333,4.3305,4.334,4.335,4.331,4.3326,4.3319,4.3305,4.3312,4.3296,4.3305,4.3271,4.327,4.3286,4.327,4.3304,4.3265,4.3277,4.3277,4.328,4.3373,4.3394,4.3458,4.334,4.3342,4.3343,0,4.3385,4.3384,4.3419,4.3402,4.3405,4.342,4.3418,4.3425,4.3416,4.3405,4.3404,4.3378,4.3395,4.3358,4.3382,4.3357,4.336,4.3353,4.3355,4.3355,4.3314,4.3376,4.3478,4.3488,4.3355,4.3354,4.3353,0,4.3461,4.3468,4.349,4.3488,4.3468,4.3479,4.3472,4.3461,4.3463,4.3462,4.3463,4.3465,4.3466,4.3468,4.3443,4.3418,4.3471,4.3431,4.3462,4.3463,4.3475,4.3475,4.3579,4.3477,4.3477,4.3477,4.3476,0,4.3538,4.3562,4.3524,4.3538,4.3563,4.3532,4.3558,4.3546,4.3537,4.3549,4.3514,4.3526,4.3493,4.3501,4.3482,4.3505,4.3506,4.3498,4.3492,4.3501,4.3502,4.3502,4.3498,4.3479,4.3479,4.3478,4.3478,0,4.3627,4.3603,4.3625,4.3604,4.3599,4.3619,4.3601,4.3614,4.3597,4.3612,4.3614,4.3588,4.3596,4.3572,4.3576,4.3564,4.3597,4.3585,4.36,4.3597,4.3629,4.3627,4.3738,4.3751,4.364,4.3641,4.3642,0,4.3678,4.3695,4.3676,4.3681,4.3675,4.3683,4.3685,4.3655,4.3659,4.365,4.3664,4.3669,4.3671,4.3686,4.3669,4.3672,4.3659,4.3698,4.366,4.3668,4.366,4.366,4.3661,4.3706,4.3707,4.3708,4.3709,0,4.3771,4.3758,4.3762,4.3762,4.3765,4.3764,4.376,4.3766,4.3734,4.374,4.3748,4.375,4.3754,4.376,4.3759,4.3752,4.3726,4.3722,4.3729,4.3738,4.3746,4.3743,4.3622,4.3719,4.3718,4.3718,4.3717,4.3717,4.3843,4.3856,4.3845,4.3851,4.3845,4.3842,4.3853,4.3837,4.3843,4.3844,4.3826,4.3837,4.3828,4.3825,4.382,4.3829,4.3811,4.3822,4.3825,4.3828,4.3834,4.3745,4.3829,4.3829,4.3828,4.3828,4.3828,0,4.3935,4.3925,4.3931,4.3926,4.3931,4.3905,4.39,4.3906,4.3916,4.391,4.3913,4.3922,4.3927,4.391,4.3913,4.3924,4.3912,4.3926,4.3925,4.3924,4.3849,4.3843,4.3935,4.3935,4.3935,4.3935,4.3935,4.3935,4.3983,4.4004,4.399,4.4009,4.3999,4.401,4.4009,4.4007,4.4001,4.4013,4.4017,4.4005,4.3995,4.3997,4.4001,4.3996,4.3999,4.4017,4.4008,4.3939,4.3929,4.3919,4.3912,4.4018,4.4018,4.4082,4.4082,4.4083]}]]